"TOA5","MOW","CPU:UNC_MeetingWaters","DataHourly"
"TIMESTAMP","SondeTempC","SpCond","DOSat","DOmg","pH","Turb","BattVolt_Min"
"TS","","","","","","",""
"","Smp","Smp","Smp","Smp","Smp","Smp","Min"
"2006-04-01 00:00:00",15.6899995804,0.00700000021607,110.199996948,10.9499998093,8.38000011444,9.60000038147,12.9399995804
"2006-04-01 01:00:00",15.6999998093,0.00700000021607,110.400001526,10.9600000381,8.27000045776,10.1000003815,12.8999996185
"2006-04-01 02:00:00",15.6499996185,0.00600000005215,110.199996948,10.9600000381,8.19999980927,10.3999996185,12.8900003433
"2006-04-01 03:00:00",15.4899997711,0.00600000005215,110.199996948,11.0,8.25,10.6999998093,12.8699998856
"2006-04-01 04:00:00",15.2100000381,0.00600000005215,110.0,11.0399999619,8.42000007629,10.3000001907,12.8400001526
"2006-04-01 05:00:00",14.970000267,0.00600000005215,107.800003052,10.8800001144,8.53999996185,15.1999998093,12.8199996948
"2006-04-01 06:00:00",15.7100000381,0.101999998093,104.300003052,10.3500003815,9.40999984741,561.200012207,12.8100004196
"2006-04-01 07:00:00",15.5500001907,0.108000002801,98.8000030518,9.84000015259,9.06000041962,248.199996948,12.8000001907
"2006-04-01 08:00:00",15.4099998474,0.107000000775,96.6999969482,9.65999984741,8.77000045776,135.600006104,12.8500003815
"2006-04-01 09:00:00",15.4300003052,0.0130000002682,94.8000030518,9.47000026703,8.60999965668,80.1999969482,12.8699998856
"2006-04-01 10:00:00",16.4400005341,0.00999999977648,100.599998474,9.84000015259,8.47999954224,58.5,13.5699996948
"2006-04-01 11:00:00",18.3999996185,0.00899999961257,109.099998474,10.2399997711,8.43000030518,50.5,14.0900001526
"2006-04-01 12:00:00",18.6700000763,0.00899999961257,115.099998474,10.75,8.27000045776,43.0,14.0699996948
"2006-04-01 13:00:00",20.4300003052,0.00899999961257,129.800003052,11.6999998093,8.35000038147,47.9000015259,14.0100002289
"2006-04-01 14:00:00",20.7600002289,0.00800000037998,127.400001526,11.4099998474,7.11000013351,37.2000007629,13.970000267
"2006-04-01 15:00:00",19.8799991608,0.00700000021607,124.300003052,11.3299999237,7.09999990463,30.2999992371,13.9399995804
"2006-04-01 16:00:00",20.7800006866,0.00600000005215,107.699996948,9.64000034332,6.86000013351,32.5,13.8999996185
"2006-04-01 17:00:00",20.1499996185,0.00499999988824,107.400001526,9.72999954224,6.73999977112,22.5,13.1700000763
"2006-04-01 18:00:00",19.7600002289,0.00400000018999,107.300003052,9.81000041962,6.67999982834,19.6000003815,13.0900001526
"2006-04-01 19:00:00",19.2399997711,0.00400000018999,107.900001526,9.97000026703,6.80000019073,14.6999998093,13.0399999619
"2006-04-01 20:00:00",18.0400009155,0.00499999988824,108.599998474,10.279999733,7.0,19.2000007629,13.0200004578
"2006-04-01 21:00:00",17.0300006866,0.00499999988824,109.099998474,10.5399999619,7.07999992371,32.2999992371,12.9899997711
"2006-04-01 22:00:00",16.3799991608,0.00499999988824,109.199996948,10.6899995804,7.13999986649,14.3000001907,12.9600000381
"2006-04-01 23:00:00",15.8500003815,0.00499999988824,109.5,10.8400001526,7.19000005722,13.8999996185,12.9399995804
"2006-04-02 00:00:00",15.3400001526,0.00499999988824,109.599998474,10.970000267,7.21999979019,25.0,12.9099998474
"2006-04-02 01:00:00",14.6000003815,0.00499999988824,109.5,11.1400003433,7.26999998093,10.8999996185,12.8800001144
"2006-04-02 02:00:00",14.529999733,0.00400000018999,109.599998474,11.1700000763,7.34000015259,10.8999996185,12.8599996567
"2006-04-02 03:00:00",13.6499996185,0.00400000018999,109.800003052,11.3999996185,7.36999988556,14.8999996185,12.8000001907
"2006-04-02 04:00:00",13.2399997711,0.00400000018999,109.900001526,11.5200004578,7.44999980927,17.6000003815,12.8199996948
"2006-04-02 05:00:00",12.7399997711,0.00400000018999,109.800003052,11.6400003433,7.51999998093,15.8999996185,12.8000001907
"2006-04-02 06:00:00",12.1999998093,0.00400000018999,109.800003052,11.779999733,7.57000017166,14.0,12.779999733
"2006-04-02 07:00:00",11.8199996948,0.00400000018999,110.300003052,11.9399995804,7.63999986649,11.1000003815,12.7700004578
"2006-04-02 08:00:00",11.5900001526,0.00400000018999,110.400001526,12.0100002289,7.75,10.8000001907,12.7700004578
"2006-04-02 09:00:00",13.1400003433,0.00400000018999,110.5,11.6099996567,7.78000020981,19.2999992371,12.9399995804
"2006-04-02 10:00:00",15.7399997711,0.00300000002608,110.900001526,11.0100002289,7.67000007629,11.3000001907,13.8000001907
"2006-04-02 11:00:00",21.1000003815,0.0,115.5,10.279999733,6.73999977112,11.8000001907,14.0799999237
"2006-04-02 12:00:00",20.8700008392,0.0,111.0,9.92000007629,6.44000005722,11.8000001907,14.0200004578
"2006-04-02 13:00:00",22.25,0.0,109.900001526,9.56000041962,6.38999986649,11.6000003815,13.9600000381
"2006-04-02 14:00:00",24.6900005341,0.0,107.199996948,8.90999984741,6.40000009537,12.0,13.220000267
"2006-04-02 15:00:00",24.25,0.0,107.400001526,9.0,6.46000003815,11.1999998093,13.1700000763
"2006-04-02 16:00:00",22.6200008392,0.0,108.699996948,9.39000034332,6.5,10.8000001907,13.1700000763
"2006-04-02 17:00:00",21.5799999237,0.0,109.099998474,9.61999988556,6.55000019073,10.1999998093,13.1199998856
"2006-04-02 18:00:00",20.7199993134,0.0,108.900001526,9.76000022888,6.61000013351,12.3999996185,13.0799999237
"2006-04-02 19:00:00",19.4400005341,0.0,109.099998474,10.029999733,6.75,10.5,13.029999733
"2006-04-02 20:00:00",17.7600002289,0.0,109.5,10.4200000763,6.84000015259,10.8000001907,13.0100002289
"2006-04-02 21:00:00",16.9599990845,0.0,109.900001526,10.6300001144,6.90999984741,15.6999998093,12.9799995422
"2006-04-02 22:00:00",16.3099994659,0.0,109.800003052,10.7700004578,7.09999990463,10.3000001907,12.9499998093
"2006-04-02 23:00:00",15.5399999619,0.0,109.800003052,10.9499998093,7.13000011444,13.5,12.9200000763
"2006-04-03 00:00:00",15.2899999619,0.0,109.800003052,11.0,7.21000003815,12.3999996185,12.8900003433
"2006-04-03 01:00:00",15.1099996567,0.0,109.800003052,11.0500001907,7.17000007629,13.5,12.8699998856
"2006-04-03 02:00:00",15.8000001907,0.0,109.599998474,10.8699998856,7.21999979019,12.3999996185,12.8400001526
"2006-04-03 03:00:00",16.0499992371,0.0,109.300003052,10.779999733,7.17999982834,10.6000003815,12.8199996948
"2006-04-03 04:00:00",15.8100004196,0.0,109.199996948,10.8199996948,7.23999977112,10.0,12.8100004196
"2006-04-03 05:00:00",15.75,0.0,109.199996948,10.8299999237,7.30000019073,20.5,12.8000001907
"2006-04-03 06:00:00",15.8699998856,0.0,109.400001526,10.8299999237,7.30000019073,15.8999996185,12.7899999619
"2006-04-03 07:00:00",15.6700000763,0.296000003815,98.4000015259,9.77000045776,9.55000019073,18.2999992371,12.779999733
"2006-04-03 08:00:00",15.6599998474,0.175999999046,91.9000015259,9.13000011444,8.47999954224,120.199996948,12.8000001907
"2006-04-03 09:00:00",15.8000001907,0.0120000001043,83.1999969482,8.25,8.39999961853,54.9000015259,12.9300003052
"2006-04-03 10:00:00",15.8199996948,0.0120000001043,68.4000015259,6.78000020981,8.34000015259,37.9000015259,12.779999733
"2006-04-03 11:00:00",15.9499998093,0.193000003695,82.0999984741,8.10999965668,8.18999958038,153.899993896,12.8000001907
"2006-04-03 12:00:00",16.3199996948,0.158000007272,82.6999969482,8.10000038147,8.10000038147,212.0,12.9799995422
"2006-04-03 13:00:00",17.0599994659,0.149000003934,87.4000015259,8.43000030518,7.98000001907,189.399993896,13.5600004196
"2006-04-03 14:00:00",18.6000003815,0.0250000003725,76.8000030518,7.17999982834,7.90000009537,142.899993896,14.3699998856
"2006-04-03 15:00:00",19.9899997711,0.00999999977648,69.0999984741,6.28000020981,7.84000015259,90.8000030518,14.0699996948
"2006-04-03 16:00:00",19.3199996948,0.00999999977648,42.5999984741,3.93000006676,7.80999994278,78.0999984741,13.970000267
"2006-04-03 17:00:00",19.0900001526,0.00999999977648,62.5999984741,5.78999996185,7.88000011444,72.4000015259,13.1700000763
"2006-04-03 18:00:00",18.2199993134,0.00899999961257,78.3000030518,7.38000011444,7.88999986649,54.0,13.1499996185
"2006-04-03 19:00:00",17.2800006866,0.00899999961257,68.1999969482,6.55999994278,7.80999994278,44.7000007629,13.0600004196
"2006-04-03 20:00:00",16.3999996185,0.00800000037998,81.0999984741,7.94000005722,7.59999990463,47.7000007629,13.029999733
"2006-04-03 21:00:00",16.1499996185,0.00800000037998,79.3000030518,7.80999994278,7.57999992371,54.7000007629,13.0
"2006-04-03 22:00:00",15.4300003052,0.00800000037998,77.1999969482,7.71000003815,7.44000005722,40.7000007629,12.9799995422
"2006-04-03 23:00:00",14.7399997711,0.00800000037998,77.4000015259,7.84999990463,7.28999996185,27.5,12.9499998093
"2006-04-04 00:00:00",13.6599998474,0.00700000021607,78.1999969482,8.11999988556,6.80999994278,27.6000003815,12.9200000763
"2006-04-04 01:00:00",12.9499998093,0.00600000005215,81.5999984741,8.60000038147,6.40999984741,22.1000003815,12.8999996185
"2006-04-04 02:00:00",11.8299999237,0.00499999988824,106.699996948,11.5399999619,5.98999977112,21.8999996185,12.8699998856
"2006-04-04 03:00:00",11.1199998856,0.00499999988824,110.5,12.1499996185,6.07000017166,20.2000007629,12.8500003815
"2006-04-04 04:00:00",10.5,0.00400000018999,111.0,12.3900003433,5.92999982834,20.3999996185,12.8199996948
"2006-04-04 05:00:00",9.64999961853,0.00400000018999,111.400001526,12.6800003052,6.23000001907,15.0,12.8000001907
"2006-04-04 06:00:00",10.2100000381,0.00400000018999,109.199996948,12.2700004578,6.48999977112,14.0,12.779999733
"2006-04-04 07:00:00",9.34000015259,0.00499999988824,49.9000015259,5.71999979019,8.13000011444,13.5,12.75
"2006-04-04 08:00:00",8.52000045776,0.00499999988824,100.900001526,11.8000001907,7.96000003815,12.6000003815,12.75
"2006-04-04 09:00:00",9.71000003815,0.00499999988824,99.9000015259,11.3599996567,7.73999977112,11.6999998093,12.970000267
"2006-04-04 10:00:00",10.9099998474,0.00200000009499,107.5,11.8800001144,6.98999977112,12.1999998093,14.0500001907
"2006-04-04 11:00:00",15.8599996567,0.0,114.300003052,11.3100004196,5.40000009537,11.8999996185,14.2399997711
"2006-04-04 12:00:00",14.8800001144,0.0,111.400001526,11.2700004578,5.13999986649,13.3999996185,14.1899995804
"2006-04-04 13:00:00",17.2600002289,0.0,110.400001526,10.6099996567,5.01000022888,13.1999998093,14.1999998093
"2006-04-04 14:00:00",14.8699998856,0.00600000005215,80.0999984741,8.10000038147,8.06999969482,11.8999996185,13.4499998093
"2006-04-04 15:00:00",16.0900001526,0.00200000009499,92.0,9.06000041962,7.36000013351,11.1000003815,13.4499998093
"2006-04-04 16:00:00",16.8099994659,0.0010000000475,108.900001526,10.5699996948,6.07999992371,26.7000007629,13.3699998856
"2006-04-04 17:00:00",15.7700004578,0.0,109.5,10.8599996567,6.30999994278,45.5999984741,13.1599998474
"2006-04-04 18:00:00",15.470000267,0.0,109.400001526,10.9200000763,6.53000020981,67.0999984741,13.1099996567
"2006-04-04 19:00:00",14.779999733,0.0,109.5,11.1000003815,6.57999992371,53.7999992371,13.0500001907
"2006-04-04 20:00:00",13.3500003815,0.0,109.699996948,11.470000267,6.65999984741,45.7000007629,13.0200004578
"2006-04-04 21:00:00",12.3699998856,0.0,110.300003052,11.7899999619,6.69000005722,34.7999992371,12.9799995422
"2006-04-04 22:00:00",11.7100000381,0.0,110.099998474,11.9399995804,6.67000007629,28.3999996185,12.9600000381
"2006-04-04 23:00:00",11.0100002289,0.0,110.0,12.1300001144,6.65999984741,21.7000007629,12.9200000763
"2006-04-05 00:00:00",9.60999965668,0.0,110.300003052,12.5699996948,6.73999977112,18.1000003815,12.8999996185
"2006-04-05 01:00:00",10.1499996185,0.0,109.900001526,12.3599996567,6.67000007629,16.8999996185,12.8699998856
"2006-04-05 02:00:00",9.52999973297,0.0,109.900001526,12.5399999619,6.67999982834,16.6000003815,12.8400001526
"2006-04-05 03:00:00",8.72000026703,0.0,109.599998474,12.7600002289,6.88999986649,21.2000007629,12.8100004196
"2006-04-05 04:00:00",7.57999992371,0.0,109.300003052,13.0799999237,6.90999984741,17.0,12.7700004578
"2006-04-05 05:00:00",7.05999994278,0.0010000000475,109.199996948,13.2399997711,6.94000005722,17.5,12.7399997711
"2006-04-05 06:00:00",7.92000007629,0.0010000000475,109.199996948,12.9600000381,6.94000005722,18.0,12.7299995422
"2006-04-05 07:00:00",7.36000013351,0.0010000000475,108.900001526,13.1000003815,6.92000007629,17.0,12.720000267
"2006-04-05 08:00:00",6.98000001907,0.0010000000475,109.400001526,13.2899999619,6.90000009537,15.1999998093,12.7299995422
"2006-04-05 09:00:00",10.1300001144,0.0,109.400001526,12.3100004196,6.51999998093,13.6000003815,13.0200004578
"2006-04-05 10:00:00",12.3800001144,0.0,109.300003052,11.6800003052,6.36999988556,12.6000003815,14.0
"2006-04-05 11:00:00",17.4799995422,0.0,114.400001526,10.9499998093,6.17000007629,11.6999998093,14.1899995804
"2006-04-05 12:00:00",17.1499996185,0.0,110.400001526,10.6400003433,5.90000009537,11.1999998093,14.1300001144
"2006-04-05 13:00:00",18.9899997711,0.0,98.5999984741,9.14999961853,5.86000013351,11.1999998093,14.1099996567
"2006-04-05 14:00:00",20.7099990845,0.0,107.199996948,9.60999965668,5.46999979019,13.6000003815,13.3800001144
"2006-04-05 15:00:00",21.3299999237,0.0,105.300003052,9.32999992371,5.48999977112,10.6999998093,13.3599996567
"2006-04-05 16:00:00",19.6800003052,0.0,84.8000030518,7.76000022888,5.90999984741,13.5,13.3299999237
"2006-04-05 17:00:00",17.3999996185,0.0,88.3000030518,8.46000003815,6.13999986649,16.1000003815,13.1499996185
"2006-04-05 18:00:00",17.0200004578,0.0,105.0,10.1400003433,6.21999979019,16.0,13.1000003815
"2006-04-05 19:00:00",16.2700004578,0.0,108.099998474,10.6099996567,6.26999998093,33.2000007629,13.0500001907
"2006-04-05 20:00:00",14.279999733,0.0,109.099998474,11.1700000763,6.32999992371,24.3999996185,13.0200004578
"2006-04-05 21:00:00",13.0,0.0,109.599998474,11.5500001907,6.44000005722,33.5,12.9899997711
"2006-04-05 22:00:00",12.6000003815,0.0,109.5,11.6499996185,6.46999979019,45.5999984741,12.9600000381
"2006-04-05 23:00:00",11.9399995804,0.0,109.599998474,11.8199996948,6.63000011444,35.5,12.9300003052
"2006-04-06 00:00:00",11.0399999619,0.0,109.599998474,12.0799999237,6.75,27.7999992371,12.8999996185
"2006-04-06 01:00:00",10.0699996948,0.0,109.5,12.3500003815,6.78999996185,23.6000003815,12.8699998856
"2006-04-06 02:00:00",9.11999988556,0.0,109.099998474,12.5799999237,7.0,22.2999992371,12.8400001526
"2006-04-06 03:00:00",8.42000007629,0.0,109.199996948,12.8000001907,7.13999986649,21.0,12.8100004196
"2006-04-06 04:00:00",8.48999977112,0.0,109.400001526,12.8100004196,7.21000003815,33.5,12.7700004578
"2006-04-06 05:00:00",7.5,0.0,109.300003052,13.1099996567,7.15000009537,18.2000007629,12.75
"2006-04-06 06:00:00",7.69000005722,0.0,109.0,13.0100002289,7.21000003815,18.2999992371,12.7399997711
"2006-04-06 07:00:00",7.36999988556,0.0,109.400001526,13.1599998474,7.28999996185,15.5,12.720000267
"2006-04-06 08:00:00",7.71999979019,0.0,109.599998474,13.0699996948,7.23000001907,14.3999996185,12.75
"2006-04-06 09:00:00",9.84000015259,0.0,110.400001526,12.5100002289,7.11000013351,15.1000003815,12.9899997711
"2006-04-06 10:00:00",12.4799995422,0.0,94.9000015259,10.1199998856,6.61999988556,19.5,14.0
"2006-04-06 11:00:00",17.9899997711,0.0,90.8000030518,8.60000038147,5.84000015259,22.8999996185,14.1800003052
"2006-04-06 12:00:00",18.1800003052,0.0,107.0,10.1000003815,5.94999980927,60.5999984741,14.1000003815
"2006-04-06 13:00:00",19.1299991608,0.0,87.9000015259,8.14000034332,6.23999977112,89.0999984741,14.1199998856
"2006-04-06 14:00:00",17.6299991608,0.00400000018999,62.7000007629,5.98000001907,8.01000022888,106.099998474,14.0699996948
"2006-04-06 15:00:00",16.8700008392,0.00600000005215,88.3000030518,8.56000041962,7.94000005722,72.1999969482,13.2899999619
"2006-04-06 16:00:00",18.4200000763,0.00200000009499,71.6999969482,6.73000001907,6.67000007629,100.699996948,13.2100000381
"2006-04-06 17:00:00",17.2900009155,0.00200000009499,87.5999984741,8.42000007629,6.84999990463,137.5,14.0600004196
"2006-04-06 18:00:00",16.7000007629,0.00200000009499,89.8000030518,8.73999977112,6.88999986649,129.0,13.1499996185
"2006-04-06 19:00:00",16.5900001526,0.00200000009499,92.1999969482,8.98999977112,6.98999977112,108.5,13.0600004196
"2006-04-06 20:00:00",15.8199996948,0.0010000000475,95.0999984741,9.43000030518,7.05000019073,99.0999984741,13.029999733
"2006-04-06 21:00:00",15.4399995804,0.0010000000475,95.1999969482,9.51000022888,7.13000011444,98.9000015259,13.0
"2006-04-06 22:00:00",14.529999733,0.0010000000475,96.4000015259,9.81999969482,7.15000009537,113.0,12.9799995422
"2006-04-06 23:00:00",13.9799995422,0.0010000000475,97.4000015259,10.0500001907,7.17000007629,110.400001526,12.9499998093
"2006-04-07 00:00:00",13.6700000763,0.0010000000475,98.4000015259,10.220000267,7.21999979019,97.4000015259,12.9200000763
"2006-04-07 01:00:00",13.1300001144,0.0010000000475,98.9000015259,10.3900003433,7.19000005722,54.2000007629,12.8999996185
"2006-04-07 02:00:00",13.0399999619,0.0010000000475,100.0,10.529999733,7.15000009537,39.5,12.8699998856
"2006-04-07 03:00:00",13.1199998856,0.0010000000475,106.400001526,11.1800003052,7.13999986649,31.1000003815,12.8500003815
"2006-04-07 04:00:00",13.029999733,0.0010000000475,108.699996948,11.4399995804,7.13000011444,30.5,12.8199996948
"2006-04-07 05:00:00",12.8299999237,0.0,109.0,11.529999733,7.15999984741,24.0,12.8000001907
"2006-04-07 06:00:00",12.5399999619,0.0,109.800003052,11.6899995804,7.17999982834,30.0,12.779999733
"2006-04-07 07:00:00",13.1099996567,0.0,109.599998474,11.5200004578,7.05000019073,18.8999996185,12.7700004578
"2006-04-07 08:00:00",13.3400001526,0.0,109.699996948,11.470000267,7.13000011444,19.2000007629,12.8000001907
"2006-04-07 09:00:00",13.8000001907,0.0,36.2000007629,3.75,7.73999977112,32.2999992371,13.0100002289
"2006-04-07 10:00:00",14.6300001144,0.00400000018999,52.5,5.34000015259,8.17000007629,104.0,13.1099996567
"2006-04-07 11:00:00",15.029999733,0.00999999977648,50.7999992371,5.11999988556,8.47999954224,215.600006104,13.2600002289
"2006-04-07 12:00:00",16.0599994659,0.0179999992251,50.9000015259,5.01000022888,8.35000038147,619.299987793,13.6199998856
"2006-04-07 13:00:00",16.3899993896,0.0189999993891,44.0,4.30999994278,8.48999977112,439.700012207,13.3599996567
"2006-04-07 14:00:00",17.2900009155,0.0170000009239,90.8000030518,8.72999954224,8.31000041962,215.100006104,14.0
"2006-04-07 15:00:00",20.6599998474,0.00999999977648,103.800003052,9.31000041962,6.69000005722,113.699996948,13.9200000763
"2006-04-07 16:00:00",21.0200004578,0.00600000005215,109.0,9.71000003815,7.01000022888,79.5,13.8500003815
"2006-04-07 17:00:00",20.6499996185,0.0,109.099998474,9.80000019073,6.90000009537,63.4000015259,13.1499996185
"2006-04-07 18:00:00",20.2399997711,0.0,109.199996948,9.89000034332,6.98000001907,35.5999984741,13.0799999237
"2006-04-07 19:00:00",19.2999992371,0.0,108.5,10.0100002289,7.07999992371,30.2999992371,13.0399999619
"2006-04-07 20:00:00",17.8700008392,0.0,108.400001526,10.2899999619,7.09999990463,26.6000003815,13.0
"2006-04-07 21:00:00",16.9300003052,0.0,108.800003052,10.529999733,7.09999990463,23.2999992371,12.9799995422
"2006-04-07 22:00:00",16.0499992371,0.0,109.300003052,10.779999733,7.07999992371,29.2000007629,12.9399995804
"2006-04-07 23:00:00",15.3500003815,0.0,109.199996948,10.9300003052,7.09999990463,20.1000003815,12.9200000763
"2006-04-08 00:00:00",14.3000001907,0.0,109.5,11.2100000381,7.09000015259,18.8999996185,12.8900003433
"2006-04-08 01:00:00",14.0100002289,0.0,109.400001526,11.2700004578,7.07999992371,18.8999996185,12.8699998856
"2006-04-08 02:00:00",13.9899997711,0.0,109.199996948,11.2600002289,7.09000015259,21.3999996185,12.8400001526
"2006-04-08 03:00:00",14.0399999619,0.0,109.099998474,11.2299995422,7.09999990463,20.2000007629,12.8199996948
"2006-04-08 04:00:00",13.8999996185,0.0,109.099998474,11.2700004578,7.05999994278,18.3999996185,12.8000001907
"2006-04-08 05:00:00",13.5799999237,0.0,108.900001526,11.3299999237,7.05000019073,18.2000007629,12.779999733
"2006-04-08 06:00:00",13.9499998093,0.0,108.800003052,11.2299995422,7.03999996185,16.7999992371,12.7700004578
"2006-04-08 07:00:00",14.1899995804,0.0,108.800003052,11.1599998474,7.01999998093,18.2000007629,12.7700004578
"2006-04-08 08:00:00",15.4300003052,0.0,108.699996948,10.8599996567,6.96999979019,15.6999998093,12.8199996948
"2006-04-08 09:00:00",16.5300006866,0.0,108.400001526,10.5799999237,6.76000022888,19.0,12.8100004196
"2006-04-08 10:00:00",16.4899997711,0.0,108.599998474,10.6099996567,6.94999980927,18.7000007629,12.8199996948
"2006-04-08 11:00:00",16.5300006866,0.266999989748,15.1000003815,1.47000002861,8.07999992371,1296.0,13.220000267
"2006-04-08 12:00:00",16.9699993134,0.153999999166,1.29999995232,0.119999997318,8.06000041962,288.0,13.1999998093
"2006-04-08 13:00:00",17.2099990845,0.0140000004321,0.699999988079,0.070000000298,8.10999965668,161.600006104,13.029999733
"2006-04-08 14:00:00",17.1000003815,0.0140000004321,14.6000003815,1.40999996662,8.10000038147,118.699996948,12.9399995804
"2006-04-08 15:00:00",17.1900005341,0.238000005484,25.1000003815,2.42000007629,7.92999982834,137.199996948,13.0699996948
"2006-04-08 16:00:00",17.5,0.21400000155,6.90000009537,0.660000026226,7.80000019073,439.299987793,13.1000003815
"2006-04-08 17:00:00",17.5100002289,0.133000001311,0.10000000149,0.00999999977648,7.69000005722,180.100006104,13.029999733
"2006-04-08 18:00:00",16.5100002289,0.0120000001043,0.0,0.0,7.67000007629,151.100006104,12.8599996567
"2006-04-08 19:00:00",15.1999998093,0.0109999999404,34.0999984741,3.42000007629,7.88999986649,138.100006104,12.8100004196
"2006-04-08 20:00:00",15.0799999237,0.0109999999404,71.5999984741,7.21000003815,7.88999986649,133.199996948,12.7899999619
"2006-04-08 21:00:00",15.9200000763,0.197999998927,2.79999995232,0.280000001192,7.55999994278,131.800003052,12.779999733
"2006-04-08 22:00:00",14.6099996567,0.070000000298,50.0,5.09000015259,7.76999998093,553.0,12.7600002289
"2006-04-08 23:00:00",14.220000267,0.0810000002384,34.4000015259,3.52999997139,7.59999990463,301.299987793,12.7399997711
"2006-04-09 00:00:00",13.8999996185,0.103000000119,23.7999992371,2.46000003815,7.48999977112,218.800003052,12.7399997711
"2006-04-09 01:00:00",13.8199996948,0.126000002027,24.8999996185,2.56999993324,7.48999977112,322.100006104,12.7299995422
"2006-04-09 02:00:00",13.5699996948,0.126000002027,20.2999992371,2.1099998951,7.5,278.399993896,12.720000267
"2006-04-09 03:00:00",12.8999996185,0.0250000003725,0.10000000149,0.00999999977648,7.55999994278,180.199996948,12.7100000381
"2006-04-09 04:00:00",12.4399995804,0.00999999977648,0.5,0.0500000007451,7.63000011444,136.699996948,12.7100000381
"2006-04-09 05:00:00",10.4300003052,0.00999999977648,5.0,0.560000002384,7.75,124.800003052,12.6999998093
"2006-04-09 06:00:00",8.02999973297,0.00999999977648,-0.10000000149,-0.00999999977648,8.06999969482,98.8000030518,12.6999998093
"2006-04-09 07:00:00",7.86000013351,0.00999999977648,0.20000000298,0.019999999553,7.98999977112,83.0,12.6899995804
"2006-04-09 08:00:00",6.84000015259,0.00999999977648,0.10000000149,0.00999999977648,7.98999977112,68.8000030518,12.6999998093
"2006-04-09 09:00:00",7.71000003815,0.00899999961257,0.800000011921,0.0900000035763,7.94999980927,57.4000015259,13.279999733
"2006-04-09 10:00:00",8.53999996185,0.00899999961257,85.1999969482,9.96000003815,7.90000009537,47.9000015259,14.0100002289
"2006-04-09 11:00:00",13.029999733,0.00899999961257,75.5999984741,7.96000003815,7.76000022888,45.0999984741,14.3299999237
"2006-04-09 12:00:00",13.279999733,0.00800000037998,80.9000015259,8.47999954224,7.59999990463,41.2000007629,14.25
"2006-04-09 13:00:00",14.3000001907,0.00600000005215,81.5,8.34000015259,7.38999986649,35.2999992371,14.25
"2006-04-09 14:00:00",16.7399997711,0.00499999988824,76.8000030518,7.46000003815,5.76999998093,35.2999992371,13.470000267
"2006-04-09 15:00:00",16.4400005341,0.00400000018999,78.9000015259,7.71999979019,5.46999979019,26.3999996185,13.4499998093
"2006-04-09 16:00:00",16.6100006104,0.0,82.5,8.03999996185,5.63000011444,25.5,13.4200000763
"2006-04-09 17:00:00",14.9200000763,0.0,87.8000030518,8.86999988556,5.98999977112,26.0,13.1800003052